Location: Oberkirch
(48.5323°N, 8.0787°E)
Time: 17:48:31
(UTC+00:00)

Cosmos 1939 Rocket - Pass Details

Date: 08 November 2025
Orbit: 491 x 528 km, 97.5° (Epoch: 10 December)

Event Time Altitude Azimuth Distance (km) Brightness Sun altitude
Rises 03:40:43 0° 19° (NNE) 2,688 6.6 -27.3°
Reaches altitude 10° 03:42:56 10° 26° (NNE) 1,792 5.8 -27.0°
Maximum altitude 03:46:37 42° 98° (E) 775 3.9 -26.4°
Enters shadow 03:48:06 28° 148° (SSE) 1,010 4.3 -26.1°
